User: anonymous   Login
Location: Charbonni�res
(45.9952°N, 2.9982°E)
Time: 16:50:37
(UTC+00:00)
Language:

METEOR 2-5 DEB - Orbit

View from above orbital plane
View from above orbital plane
View from above satellite
View from above satellite

Ground track
Ground track

The orbit data is extracted from the following two-line orbital elements,

1 38280U 79095CA  21174.65729183  .00001271  00000-0  57973-3 0  9992
2 38280  81.1958 145.1340 0008628  95.2930 264.9232 14.21068090550509
Epoch (UTC): 23 June 2021 15:46:30
Eccentricity: 0.0008628
inclination: 81.1958°
perigee height: 815 km
apogee height: 828 km
right ascension of ascending node: 145.1340°
argument of perigee: 95.2930°
revolutions per day: 14.21068090
mean anomaly at epoch: 264.9232°
orbit number at epoch: 55050

The dashed part of the orbit path shows where the satellite is in the earth's shadow,  

DLR